Regional Weather Roundup
Issued by NWS

Home | Current Version | Previous Version | Text Only | Print | Product List | Glossary Off
Versions: 1 2 3 4 5 6 7 8 9 10 11 12 13 14 15 16 17 18 19 20 21 22 23 24 25 26 27 28 29 30 31 32 33 34 35 36 37 38 39 40 41 42 43 44 45 46 47 48 49 50

000
ASUS43 KBIS 261701
RWRND

NORTH DAKOTA REGIONAL WEATHER ROUNDUP
NATIONAL WEATHER SERVICE BISMARCK ND
1100 AM CST THU FEB 26 2015

NOTE: "FAIR" INDICATES FEW OR NO CLOUDS BELOW 12,000 FEET WITH NO
SIGNIFICANT WEATHER AND/OR OBSTRUCTIONS TO VISIBILITY.


NDZ001>003-009>011-017-261800-
NORTHWEST NORTH DAKOTA

CITY           SKY/WX    TMP DP  RH WIND       PRES   REMARKS
WILLISTON      SUNNY      0 -10  63 NE3       30.60S
MINOT          SUNNY     -4 -14  62 W9        30.56R WCI -20
MINOT AFB      SUNNY     -8 -15  69 NW13      30.56S WCI -28
$$

NDZ018>021-031>035-040>046-261800-
SOUTHWEST NORTH DAKOTA

CITY           SKY/WX    TMP DP  RH WIND       PRES   REMARKS
BISMARCK       SUNNY      0 -11  59 NW9       30.59R WCI -15
DICKINSON      SUNNY      0  -8  69 NW10      30.48R WCI -16
GARRISON         N/A     -6 -13  71 NW13      30.56R WCI -25
HETTINGER ARPT SUNNY      0  -6  76 N12       30.49R WCI -17
$$

NDZ004>008-012>016-024-026-027-054-261800-
NORTHEAST NORTH DAKOTA

CITY           SKY/WX    TMP DP  RH WIND       PRES   REMARKS
GRAND FORKS    SUNNY      0 -11  59 N7        30.57S WCI -13
GRND FRKS AFB  SUNNY      0 -12  57 N10       30.56S WCI -16
DEVILS LAKE    SUNNY    N/A N/A N/A MISG        N/A
$$

NDZ022-023-025-028>030-036>039-047>053-261800-
SOUTHEAST NORTH DAKOTA

CITY           SKY/WX    TMP DP  RH WIND       PRES   REMARKS
FARGO          SUNNY      0 -10  63 N14       30.57S WCI -19
JAMESTOWN      SUNNY     -4 -13  65 NW12      30.53S WCI -22
$$



USA.gov is the U.S. government's official web portal to all federal, state and local government web resources and services.